Regional Weather Roundup
Issued by NWS Memphis, TN

Home | Current Version | Previous Version | Text Only | Print | Product List | Glossary On
Versions: 1 2 3 4 5 6 7 8 9 10 11 12 13 14 15 16 17 18 19 20 21 22 23 24 25 26 27 28 29 30 31 32 33 34 35 36 37 38 39 40 41 42 43 44 45 46 47 48 49 50
000
ASUS44 KMEG 231310
RWRMEG
MEMPHIS CWA HOURLY WEATHER ROUNDUP
NATIONAL WEATHER SERVICE MEMPHIS TN
700 AM CST MON JAN 23 2017

...WEST TENNESSEE...

CITY           SKY/WX    TMP DP  RH WIND       PRES   REMARKS
MEMPHIS INTL   PTCLDY    42  37  82 NW13      29.76R
NWS MEMPHIS      N/A     42 N/A N/A MISG        N/A
JACKSON        PTCLDY    43  37  79 NW15      29.70R
BOLIVAR        CLOUDY    43  37  81 NW10      29.70R
DYERSBURG      CLEAR     43  34  70 NW9G17    29.73R
UNION CITY     CLEAR     39  39 100 NW16      29.69R WCI  30
PARIS          CLEAR     37  34  87 CALM      29.65R
HUNTINGDON     PTCLDY    43  37  81 NW7G13    29.65R


...EASTERN ARKANSAS...

CITY           SKY/WX    TMP DP  RH WIND       PRES   REMARKS
JONESBORO      CLEAR     43  35  73 NW12G21   29.78R
WEST MEMPHIS   CLEAR     42  39  89 NW9       29.78R
BATESVILLE     CLOUDY    43  34  70 NW12G20   29.83R
NEWPORT        CLOUDY    43  36  76 N21       29.81R
WALNUT RIDGE   CLOUDY    43  34  70 NW15      29.81R
BLYTHEVILLE    CLEAR     41  37  86 NW16      29.76R
SEARCY         CLOUDY    43  37  79 NW10G17   29.84R
STUTTGART      CLEAR     43  30  61 NW15      29.82R
PINE BLUFF     CLEAR     43  36  76 NW14      29.83R
MONTICELLO     CLEAR     45  39  79 NW7       29.81R


...NORTH MISSISSIPPI...

CITY           SKY/WX    TMP DP  RH WIND       PRES   REMARKS
TUPELO         CLOUDY    49  40  71 NW13G25   29.68R
OXFORD         CLEAR     41  36  81 NW15G21   29.75R
BATESVILLE     CLEAR     42  37  80 NW7       29.78R
OLIVE BRANCH   PTCLDY   N/A N/A N/A NW12G17   29.75
TUNICA         PTCLDY    41  36  81 NW16      29.80R
CLARKSDALE     CLEAR     43  39  87 NW12G20   29.79S
CORINTH        CLOUDY    46  41  81 NW16G24   29.66R
GREENWOOD      PTCLDY    46  36  68 N10       29.78R
COLUMBUS       CLOUDY    50  45  81 NW22G29   29.67R
STARKVILLE     CLOUDY    48  43  81 NW9G18    29.70R
GOLDEN TRIANGL CLOUDY    50  41  71 NW21G29   29.61R


...SOUTHEAST MISSOURI...

CITY           SKY/WX    TMP DP  RH WIND       PRES   REMARKS
KENNETT        CLEAR     43  37  81 NW16G22   29.76R
WEST PLAINS    CLOUDY    40  35  83 N10       29.82R WCI  33
POPLAR BLUFF   PTCLDY    41  35  79 N12       29.77R
CAPE GIRARDEAU CLOUDY    41  34  76 N17G24    29.75R


...NORTHWEST ALABAMA...

CITY           SKY/WX    TMP DP  RH WIND       PRES   REMARKS
MUSCLE SHOALS  CLOUDY    48  40  73 NW21G28   29.59R


...MIDDLE TENNESSEE...

CITY           SKY/WX    TMP DP  RH WIND       PRES   REMARKS
NASHVILLE      CLOUDY    50  43  77 NW17G31   29.52R
CLARKSVILLE    CLOUDY    45  39  79 NW23G33   29.60R
COLUMBIA       CLOUDY    48  48 100 NW14      29.53R


...WESTERN KENTUCKY...

CITY           SKY/WX    TMP DP  RH WIND       PRES   REMARKS
PADUCAH        CLEAR     41  34  76 NW13      29.67R
FORT CAMPBELL  CLOUDY    45  41  87 NW14G23   29.60R


...CENTRAL ARKANSAS...

CITY           SKY/WX    TMP DP  RH WIND       PRES   REMARKS
LITTLE ROCK    MOCLDY    40  35  83 NW9       29.85R WCI  34


SKY/WX REPORTED AS FAIR MEANS FEW OR NO CLOUDS BELOW
12 THOUSAND FEET.




USA.gov is the U.S. government's official web portal to all federal, state and local government web resources and services.